Location: Sobotiste
(48.7170°N, 17.4000°E)
Time: 03:37:44
(UTC+02:00)

OTV 5 (USA 277) - Visible Passes

Search period start: 22 August 2018 00:00
Search period end: 01 September 2018 00:00
Orbit: 316 x 334 km, 54.5° (Epoch: 20 August)

Date Brightness Start Highest point End Pass type
(mag) Time Alt. Az. Time Alt. Az. Time Alt. Az.
22 Aug ? 20:37:05 10° WSW 20:39:53 85° NNW 20:42:39 10° ENE visible
22 Aug ? 22:12:14 10° WNW 22:14:39 26° N 22:15:32 21° NNE visible
23 Aug ? 20:54:33 10° W 20:57:14 43° NNW 20:59:55 10° NE visible
23 Aug ? 22:29:53 10° WNW 22:32:09 23° N 22:32:09 23° N visible
24 Aug ? 21:12:14 10° WNW 21:14:43 28° NNW 21:17:12 10° NE visible
24 Aug ? 22:47:22 10° NW 22:48:41 19° NNW 22:48:41 19° NNW visible
25 Aug ? 21:29:54 10° WNW 21:32:15 23° N 21:34:08 13° NE visible
25 Aug ? 23:04:42 10° NW 23:05:10 13° NW 23:05:10 13° NW visible
26 Aug ? 21:47:28 10° NW 21:49:48 24° N 21:50:36 21° NNE visible
27 Aug ? 20:29:55 10° WNW 20:32:18 24° N 20:34:41 10° NE visible
27 Aug ? 22:04:50 10° NW 22:07:03 28° N 22:07:03 28° N visible
28 Aug ? 20:47:32 10° NW 20:49:51 23° N 20:52:11 10° ENE visible
28 Aug ? 22:22:07 10° NW 22:23:29 24° NW 22:23:29 24° NW visible
29 Aug ? 21:04:58 10° NW 21:07:25 26° N 21:08:55 17° ENE visible
29 Aug ? 22:39:24 10° WNW 22:39:57 15° WNW 22:39:57 15° WNW visible
30 Aug ? 21:22:16 10° NW 21:24:54 37° NNE 21:25:23 34° NE visible
31 Aug ? 20:05:05 10° NW 20:07:28 25° N 20:09:51 10° ENE visible
31 Aug ? 21:39:32 10° WNW 21:41:52 55° NNW 21:41:52 55° NNW visible
